Weather History for KCNO - March, 2013

Change the Weather History Date:

Sunday, March 3, 2013

  Actual Average Record
Temperature  
Mean Temperature 60 °F -  
Max Temperature 73 °F 64 °F 80 °F (2012)
Min Temperature 46 °F 41 °F 33 °F (2002)
Degree Days  
Heating Degree Days 6    
Growing Degree Days 10 (Base 50)    
Moisture  
Dew Point 39 °F    
Average Humidity 52    
Maximum Humidity 92    
Minimum Humidity 21    
Precipitation  
Precipitation 0.00 in - - ()
Sea Level Pressure  
Sea Level Pressure 30.04 in    
Wind  
Wind Speed 6 mph (WNW)    
Max Wind Speed 14 mph    
Max Gust Speed -    
Visibility 10 miles    
Events      
Averages and records for this station are not official NWS values.
T = Trace of Precipitation, MM = Missing Value Source: NWS Daily Summary

Daily Weather History Graph

Daily Weather History Graph

Search for Another Location

Airport or City:

Trip Planner

Search our weather history database for the weather conditions in past years. The results will help you decide how hot, cold, wet, or windy it might be!

Date:

Astronomy

Mar. 03, 2013 Rise Set
Actual Time 6:16 AM PST 5:48 PM PST
Civil Twilight 5:51 AM PST 6:13 PM PST
Nautical Twilight 5:22 AM PST 6:42 PM PST
Astronomical Twilight 4:53 AM PST 7:11 PM PST
Moon No Moon Rise 9:53 AM PST (3/3)
Length of Visible Light 12h 22m
Length of Day
11h 32m
Waning Gibbous, 62% of the Moon is Illuminated
Mar 3
Waning Gibbous
Mar 4
Last Quarter
Mar 11
New
Mar 19
First Quarter
Mar 27
Full

Hourly Weather History & Observations

Time (PST) Temp. Dew Point Humidity Pressure Visibility Wind Dir Wind Speed Gust Speed Precip Events Conditions
12:53 AM 50.0 °F 35.1 °F 57% 30.11 in 10.0 mi North 5.8 mph - N/A   Clear
1:53 AM 46.0 °F 35.1 °F 66% 30.11 in 9.0 mi Calm Calm - N/A   Clear
3:53 AM 53.1 °F 36.0 °F 52% 30.04 in 9.0 mi NNE 4.6 mph - N/A   Overcast
4:53 AM 48.9 °F 36.0 °F 61% 30.04 in 9.0 mi Calm Calm - N/A   Clear
5:53 AM 50.0 °F 36.0 °F 59% 30.07 in 9.0 mi NNW 3.5 mph - N/A   Clear
6:53 AM 51.1 °F 37.0 °F 59% 30.09 in 10.0 mi NNW 6.9 mph - N/A   Mostly Cloudy
7:53 AM 57.9 °F 37.0 °F 46% 30.09 in 10.0 mi Calm Calm - N/A   Mostly Cloudy
8:53 AM 61.0 °F 36.0 °F 39% 30.08 in 10.0 mi SSE 3.5 mph - N/A   Mostly Cloudy
9:53 AM 62.1 °F 34.0 °F 35% 30.09 in 10.0 mi Calm Calm - N/A   Mostly Cloudy
10:53 AM 72.0 °F 33.1 °F 24% 30.07 in 10.0 mi SSW 8.1 mph - N/A   Mostly Cloudy
11:53 AM 70.0 °F 34.0 °F 27% 30.04 in 10.0 mi West 10.4 mph - N/A   Mostly Cloudy
12:53 PM 70.0 °F 34.0 °F 27% 30.02 in 10.0 mi West 11.5 mph - N/A   Mostly Cloudy
1:53 PM 72.0 °F 30.0 °F 21% 29.99 in 10.0 mi WSW 9.2 mph - N/A   Mostly Cloudy
2:53 PM 73.0 °F 34.0 °F 24% 29.99 in 10.0 mi West 13.8 mph - N/A   Mostly Cloudy
3:53 PM 70.0 °F 39.0 °F 32% 29.97 in 10.0 mi West 13.8 mph - N/A   Mostly Cloudy
4:53 PM 64.9 °F 44.1 °F 47% 29.98 in 10.0 mi West 12.7 mph - N/A   Mostly Cloudy
5:53 PM 60.1 °F 45.0 °F 57% 29.99 in 10.0 mi West 4.6 mph - N/A   Mostly Cloudy
6:53 PM 57.9 °F 46.0 °F 65% 30.00 in 10.0 mi WSW 9.2 mph - N/A   Mostly Cloudy
7:53 PM 57.0 °F 45.0 °F 64% 30.01 in 10.0 mi West 11.5 mph - N/A   Mostly Cloudy
8:53 PM 53.1 °F 46.0 °F 77% 30.02 in 9.0 mi WNW 4.6 mph - N/A   Partly Cloudy
9:53 PM 53.1 °F 46.0 °F 77% 30.02 in 9.0 mi WNW 6.9 mph - N/A   Mostly Cloudy
10:53 PM 50.0 °F 46.9 °F 89% 30.01 in 8.0 mi NNW 4.6 mph - N/A   Clear
11:53 PM 51.1 °F 48.9 °F 92% 30.03 in 6.0 mi WNW 5.8 mph - N/A   Mostly Cloudy